#timestamp,LO_Frequency,Hit,StdDev 
1640991615.8,286047001.9,N
1640991635.7,286047001.7,N
1640991655.5,286047002.5,N
1640991675.3,286047001.8,N
1640991695.2,286047003.4,Y
1640991715.0,286047004.4,P
1640991715.9,286047004.4,P
1640991735.8,286047004.4,P
1640991755.6,286047002.2,N
1640991775.4,286047001.9,N
1640991795.3,286047003.9,Y
1640991815.1,286046998.5,P
1640991835.8,286047000.7,N
1640991855.7,286047000.1,N
1640991875.5,286046999.8,N
1640991895.4,286047000.5,N
1640991915.2,286047000.3,N
1640991935.0,286047000.2,N
1640991936.0,286047000.2,N
1640991955.8,286046999.7,N
1640991975.6,286046999.8,N
1640991995.5,286047000.8,N
1640992015.3,286046998.1,N
1640992035.1,286046998.3,N
1640992055.9,286046998.7,N
1640992075.7,286046999.0,N
1640992095.6,286046999.1,N
1640992115.4,286046998.6,N
1640992135.2,286046999.4,N
1640992155.1,286047000.5,N
1640992156.0,286047000.5,N
1640992175.8,286047000.4,N
1640992195.6,286046999.3,N
1640992215.5,286046998.9,N
1640992235.3,286046999.0,N
1640992255.2,286046998.1,N
1640992275.9,286047002.8,N
1640992295.7,286046999.9,N
1640992315.6,286046998.5,N
1640992335.4,286046998.9,N
1640992355.2,286046997.4,N
1640992375.1,286046997.1,N
1640992376.0,286046997.1,N
1640992395.8,286046997.1,N
1640992415.7,286047001.2,N
1640992435.5,286046998.8,N
1640992455.3,286046998.8,N
1640992475.2,286046999.4,N
1640992495.0,286046999.5,N
1640992495.9,286046999.5,N
1640992515.8,286046999.4,N
1640992535.6,286046998.6,N
1640992555.4,286047001.0,N
1640992575.3,286046998.8,N
1640992595.1,286046998.8,N
1640992615.8,286046998.3,N
1640992635.7,286046996.8,N
1640992655.5,286046997.1,N
1640992675.4,286046997.4,N
1640992695.2,286046997.0,N
1640992715.0,286046997.0,N
1640992715.9,286046997.0,N
1640992735.8,286046999.5,N
1640992755.6,286046999.0,N
1640992775.5,286047001.2,N
1640992795.3,286046997.3,N
1640992815.1,286046998.9,N
1640992835.9,286046999.0,N
1640992855.7,286046997.0,N
1640992875.6,286046997.7,N
1640992895.4,286046997.1,N
1640992915.2,286046999.4,N
1640992935.1,286046997.0,N
1640992936.0,286046997.0,N
1640992955.8,286046997.1,N
1640992975.7,286046996.6,N
1640992995.5,286046998.3,N
1640993015.3,286046999.0,N
1640993035.2,286046999.1,N
1640993055.0,286046998.1,N
1640993055.9,286046998.1,N
1640993075.7,286046998.6,N
1640993095.6,286047000.9,N
1640993115.4,286047000.8,N
1640993135.3,286046998.8,N
1640993155.1,286046998.8,N
1640993156.0,286046998.8,N
1640993175.8,286046999.3,N
1640993195.7,286047000.5,N
1640993215.5,286046998.2,N
1640993235.3,286046998.7,N
1640993255.2,286046998.2,N
1640993275.0,286046998.4,N
1640993275.9,286046998.4,N
1640993295.8,286046998.9,N
1640993315.6,286046997.7,N
1640993335.4,286046998.0,N
1640993355.3,286046998.0,N
1640993375.1,286046997.0,N
1640993395.9,286046998.7,N
1640993415.7,286047000.6,N
1640993435.5,286047000.1,N
1640993455.4,286047001.5,N
1640993475.2,286047002.4,N
1640993495.0,286047000.7,N
1640993495.9,286047000.7,N
1640993515.8,286046998.7,N
1640993535.6,286046998.1,N
1640993555.5,286046999.0,N
1640993575.3,286046998.7,N
1640993595.1,286047000.2,N
1640993615.9,286047000.0,N
1640993635.7,286047001.0,N
1640993655.5,286047000.0,N
1640993675.4,286047002.7,N
1640993695.2,286047000.1,N
1640993715.1,286046998.7,N
1640993716.0,286046998.7,N
1640993735.8,286046999.0,N
1640993755.6,286046998.4,N
1640993775.5,286046999.0,N
1640993795.3,286046996.5,N
1640993815.1,286046999.4,N
1640993835.9,286046998.1,N
1640993855.7,286046998.6,N
1640993875.6,286046998.6,N
1640993895.4,286046998.7,N
1640993915.2,286046998.1,N
1640993935.1,286046998.1,N
1640993936.0,286046998.1,N
1640993955.8,286046998.2,N
1640993975.7,286046998.9,N
1640993995.5,286047000.5,N
1640994015.3,286047001.0,N
1640994035.2,286047002.8,N
1640994055.0,286047000.3,N
1640994055.9,286047000.3,N
1640994075.8,286047002.0,N
1640994095.6,286047001.3,N
1640994115.4,286047002.1,N
1640994135.3,286047002.4,N
1640994155.1,286047000.3,N
1640994175.9,286047000.9,N
1640994195.7,286047000.6,N
1640994215.5,286047002.0,N
1640994235.4,286047001.9,N
1640994255.2,286047000.3,N
1640994275.0,286047000.7,N
1640994275.9,286047000.7,N
1640994295.8,286046998.3,N
1640994315.6,286046999.2,N
1640994335.5,286046999.6,N
1640994355.3,286046998.4,N
1640994375.1,286046998.7,N
1640994395.9,286047000.2,N
1640994415.7,286047002.8,N
1640994435.5,286046999.7,N
1640994455.4,286047002.3,N
1640994475.2,286047002.6,N
1640994495.1,286047001.7,N
1640994496.0,286047001.7,N
1640994515.8,286047003.9,N
1640994535.6,286047001.8,N
1640994555.5,286047002.5,N
1640994575.3,286047003.7,N
1640994595.1,286047003.6,N
1640994615.9,286047004.4,N
1640994635.7,286047002.7,N
1640994655.6,286046999.8,N
1640994675.4,286046998.1,N
1640994695.2,286046998.2,N
1640994715.1,286046998.2,N
1640994716.0,286046998.2,N
1640994735.8,286046999.8,N
1640994755.7,286047000.2,N
1640994775.5,286046999.6,N
1640994795.3,286046998.7,N
1640994815.2,286046998.3,N
1640994835.0,286046999.3,N
1640994835.9,286046999.3,N
1640994855.8,286046998.6,N
1640994875.6,286046998.5,N
1640994895.4,286047000.9,N
1640994915.3,286047000.8,N
1640994935.1,286046998.4,N
1640994955.8,286046999.3,N
1640994975.7,286047001.0,N
1640994995.5,286046999.5,N
1640995015.4,286046999.2,N
1640995035.2,286046998.1,N
1640995055.0,286046998.2,N
1640995055.9,286046998.2,N
1640995075.8,286046998.7,N
1640995095.6,286046998.3,N
1640995115.4,286046998.7,N
1640995135.3,286046999.3,N
1640995185.2,286046999.1,E
1640995195.1,286047000.5,N
1640995196.0,286047000.5,P
